CW4592 Weather Reports


time (UTC)temp
C
wind
direction
speed
KPH
gust
KPH
rain 1hr
cm
rain 24hr
cm
rain mn
cm
humidity
%
barometer
mb
20260507093959 5 223 0.0 1.6 0.00 0.00 0.00 78 1010.7
20260507093459 5 223 0.0 1.6 0.00 0.00 0.00 78 1010.6
20260507092959 5 0 0.0 0.0 0.00 0.00 0.00 78 1010.7
20260507091959 5 0 0.0 0.0 0.00 0.00 0.00 77 1010.8
20260507085459 5 253 0.0 1.6 0.00 0.00 0.00 75 1011.0
20260507084959 5 233 0.0 1.6 0.00 0.00 0.00 74 1011.1
20260507084459 5 235 0.0 1.6 0.00 0.00 0.00 74 1011.1
20260507083459 5 225 0.0 3.2 0.00 0.00 0.00 74 1011.2
20260507082959 5 227 0.0 3.2 0.00 0.00 0.00 73 1011.3
20260507082459 5 218 0.0 1.6 0.00 0.00 0.00 74 1011.3
20260507081959 5 0 0.0 0.0 0.00 0.00 0.00 73 1011.3
20260507080959 5 241 0.0 1.6 0.00 0.00 0.00 72 1011.5
20260507080458 4 210 0.0 1.6 0.00 0.00 0.00 71 1011.5
20260507075459 4 213 0.0 3.2 0.00 0.00 0.00 71 1011.5
20260507074959 3 210 0.0 3.2 0.00 0.00 0.00 70 1011.5
20260507074459 3 108 0.0 1.6 0.00 0.00 0.00 68 1011.6
20260507073959 3 108 0.0 1.6 0.00 0.00 0.00 68 1011.7
20260507073459 3 0 0.0 0.0 0.00 0.00 0.00 67 1011.7
20260507072958 3 0 0.0 0.0 0.00 0.00 0.00 66 1011.7
20260507070459 4 0 0.0 0.0 0.00 0.00 0.00 62 1012.3
20260507065959 4 85 0.0 1.6 0.00 0.00 0.00 59 1012.5
20260507065459 4 88 0.0 1.6 0.00 0.00 0.00 59 1012.4
20260507064958 4 108 0.0 3.2 0.00 0.00 0.00 57 1012.5
20260507064459 4 171 0.0 4.8 0.00 0.00 0.00 57 1012.5
20260507063959 4 181 0.0 4.8 0.00 0.00 0.00 56 1012.6
20260507063459 5 142 0.0 1.6 0.00 0.00 0.00 55 1012.6
20260507062959 5 125 0.0 1.6 0.00 0.00 0.00 54 1012.7
20260507062458 5 0 0.0 0.0 0.00 0.00 0.00 55 1012.8
20260507061959 5 0 0.0 0.0 0.00 0.00 0.00 54 1012.8
20260507060959 5 0 0.0 0.0 0.00 0.00 0.00 53 1013.0
20260507055959 5 123 0.0 1.6 0.00 0.00 0.00 54 1013.1
20260507055458 5 123 0.0 1.6 0.00 0.00 0.00 54 1013.2
20260507054958 5 0 0.0 0.0 0.00 0.00 0.00 55 1013.3
20260507053959 5 104 0.0 1.6 0.00 0.00 0.00 55 1013.4
20260507053459 5 105 0.0 1.6 0.00 0.00 0.00 55 1013.5
20260507052459 5 0 0.0 0.0 0.00 0.00 0.00 56 1013.5
20260507051959 5 0 0.0 0.0 0.00 0.00 0.00 55 1013.5
20260507050458 5 0 0.0 0.0 0.00 0.00 0.00 54 1013.6
20260507045459 5 0 0.0 0.0 0.00 0.00 0.00 52 1013.8
20260507044958 6 0 0.0 0.0 0.00 0.00 0.00 52 1013.8
20260507044458 6 0 0.0 0.0 0.00 0.00 0.00 52 1013.8
20260507043959 6 0 0.0 0.0 0.00 0.00 0.00 52 1013.8
20260507043459 6 0 0.0 0.0 0.00 0.00 0.00 52 1013.9
20260507042959 6 0 0.0 0.0 0.00 0.00 0.00 53 1013.9
20260507042459 5 0 0.0 0.0 0.00 0.00 0.00 53 1014.0
20260507041958 6 0 0.0 0.0 0.00 0.00 0.00 52 1014.1
20260507041458 6 0 0.0 0.0 0.00 0.00 0.00 52 1014.2
20260507040959 6 0 0.0 0.0 0.00 0.00 0.00 52 1014.2
20260507040459 6 0 0.0 0.0 0.00 0.00 0.00 53 1014.2
20260507035458 6 62 0.0 1.6 0.00 0.00 0.00 50 1014.2
20260507034958 6 0 0.0 0.0 0.00 0.00 0.00 50 1014.2
20260507034458 6 0 0.0 0.0 0.00 0.00 0.00 50 1014.2
20260507033959 6 0 0.0 0.0 0.00 0.00 0.00 49 1014.3
20260507033459 6 0 0.0 0.0 0.00 0.00 0.00 48 1014.4
20260507032458 7 0 0.0 0.0 0.00 0.00 0.00 49 1014.4
20260507031958 7 0 0.0 0.0 0.00 0.00 0.00 49 1014.4
20260507031458 7 0 0.0 0.0 0.00 0.00 0.00 49 1014.4
20260507030459 7 0 0.0 0.0 0.00 0.00 0.00 47 1014.5
20260507025959 8 0 0.0 0.0 0.00 0.00 0.00 45 1014.5
20260507025458 8 0 0.0 0.0 0.00 0.00 0.00 44 1014.5
20260507025000 8 0 0.0 0.0 0.00 0.00 0.00 43 1014.4
20260507024459 8 0 0.0 0.0 0.00 0.00 0.00 42 1014.5
20260507023458 8 0 0.0 0.0 0.00 0.00 0.00 43 1014.5
20260507022958 8 0 0.0 0.0 0.00 0.00 0.00 41 1014.4
20260507021959 9 0 0.0 0.0 0.00 0.00 0.00 40 1014.4
20260507021459 9 0 0.0 0.0 0.00 0.00 0.00 40 1014.4
20260507020959 10 0 0.0 0.0 0.00 0.00 0.00 40 1014.4
20260507015959 10 13 0.0 1.6 0.00 0.00 0.00 42 1014.3
20260507015458 10 13 0.0 1.6 0.00 0.00 0.00 40 1014.3
20260507014958 10 0 0.0 0.0 0.00 0.00 0.00 40 1014.4
20260507014459 11 0 0.0 0.0 0.00 0.00 0.00 38 1014.3
20260507013458 12 0 0.0 0.0 0.00 0.00 0.00 33 1014.4
20260507012958 12 0 0.0 0.0 0.00 0.00 0.00 33 1014.2
20260507012458 12 294 0.0 1.6 0.00 0.00 0.00 33 1014.3
20260507011958 12 294 0.0 1.6 0.00 0.00 0.00 32 1014.4
20260507011459 13 298 0.0 1.6 0.00 0.00 0.00 32 1014.4
20260507010458 13 292 0.0 4.8 0.00 0.00 0.00 31 1014.4
20260507005958 13 292 0.0 3.2 0.00 0.00 0.00 30 1014.4
20260507005458 13 298 1.6 4.8 0.00 0.00 0.00 30 1014.4
20260507004959 13 297 1.6 6.4 0.00 0.00 0.00 30 1014.4
20260507004458 13 292 3.2 6.4 0.00 0.00 0.00 29 1014.3
20260507003958 13 285 3.2 8.0 0.00 0.00 0.00 30 1014.4
20260507002958 14 293 3.2 6.4 0.00 0.00 0.00 29 1014.5
20260507002458 14 295 3.2 9.7 0.00 0.00 0.00 29 1014.5
20260507001959 14 295 3.2 9.7 0.00 0.00 0.00 29 1014.6
20260507001458 14 290 3.2 9.7 0.00 0.00 0.00 29 1014.6
20260507000458 13 280 3.2 9.7 0.00 0.00 0.00 29 1014.7
20260506235959 14 287 3.2 9.7 0.00 0.00 0.00 28 1014.7
20260506235458 14 289 4.8 12.9 0.00 0.00 0.00 28 1014.9
20260506234958 14 289 3.2 12.9 0.00 0.00 0.00 30 1014.8
20260506234458 14 289 4.8 12.9 0.00 0.00 0.00 29 1014.8
20260506233958 14 284 4.8 12.9 0.00 0.00 0.00 28 1014.8
20260506233458 14 284 4.8 9.7 0.00 0.00 0.00 28 1014.8
20260506232958 14 291 3.2 9.7 0.00 0.00 0.00 29 1014.9
20260506232459 14 302 3.2 6.4 0.00 0.00 0.00 29 1014.9
20260506230958 15 287 4.8 17.7 0.00 0.00 0.00 29 1015.0
20260506230458 14 290 3.2 17.7 0.00 0.00 0.00 29 1015.0
20260506224958 13 291 3.2 8.0 0.00 0.00 0.00 29 1015.1
20260506224458 14 283 3.2 9.7 0.00 0.00 0.00 28 1015.3
20260506223958 14 291 3.2 9.7 0.00 0.00 0.00 29 1015.3
20260506223458 14 296 3.2 9.7 0.00 0.00 0.00 28 1015.3
20260506222959 14 300 4.8 11.3 0.00 0.00 0.00 28 1015.5
20260506222458 14 293 3.2 12.9 0.00 0.00 0.00 29 1015.4
20260506221458 14 290 3.2 11.3 0.00 0.00 0.00 29 1015.5
20260506220958 14 291 1.6 9.7 0.00 0.00 0.00 28 1015.5
20260506220458 14 301 0.0 6.4 0.00 0.00 0.00 30 1015.6
20260506215959 14 291 1.6 4.8 0.00 0.00 0.00 29 1015.6
20260506214958 13 297 1.6 6.4 0.00 0.00 0.00 29 1015.9
20260506213958 13 285 4.8 12.9 0.00 0.00 0.00 29 1015.9
20260506212958 13 290 3.2 11.3 0.00 0.00 0.00 29 1016.0
20260506211958 13 286 4.8 16.1 0.00 0.00 0.00 30 1016.2
20260506211458 13 282 4.8 12.9 0.00 0.00 0.00 30 1016.2
20260506210958 13 284 6.4 14.5 0.00 0.00 0.00 30 1016.3
20260506205958 13 290 1.6 11.3 0.00 0.00 0.00 31 1016.5
20260506205458 13 286 3.2 12.9 0.00 0.00 0.00 30 1016.6
20260506204958 13 291 4.8 12.9 0.00 0.00 0.00 29 1016.8
20260506204458 13 290 3.2 9.7 0.00 0.00 0.00 29 1016.8
20260506203959 14 284 4.8 11.3 0.00 0.00 0.00 29 1016.8
20260506203458 14 283 4.8 17.7 0.00 0.00 0.00 29 1016.9
20260506202958 13 281 3.2 17.7 0.00 0.00 0.00 29 1016.9
20260506201959 13 290 4.8 9.7 0.00 0.00 0.00 29 1017.0
20260506201458 14 289 3.2 9.7 0.00 0.00 0.00 29 1017.2
20260506200458 13 285 4.8 12.9 0.00 0.00 0.00 31 1017.2
20260506195958 13 286 6.4 14.5 0.00 0.00 0.00 30 1017.2
20260506195458 13 281 4.8 16.1 0.00 0.00 0.00 31 1017.4
20260506194958 13 280 3.2 16.1 0.00 0.00 0.00 32 1017.3
20260506193958 12 285 4.8 14.5 0.00 0.00 0.00 30 1017.5
20260506193458 13 293 3.2 9.7 0.00 0.00 0.00 30 1017.5
20260506192958 13 292 4.8 12.9 0.00 0.00 0.00 30 1017.6
20260506192458 13 287 6.4 12.9 0.00 0.00 0.00 31 1017.6
20260506191958 13 287 4.8 12.9 0.00 0.00 0.00 32 1017.6
20260506191458 12 287 4.8 12.9 0.00 0.00 0.00 30 1017.6
20260506190958 12 273 4.8 12.9 0.00 0.00 0.00 31 1017.6
20260506190458 12 273 4.8 17.7 0.00 0.00 0.00 31 1017.6
20260506185958 12 283 6.4 17.7 0.00 0.00 0.00 30 1017.8
20260506185457 12 286 4.8 14.5 0.00 0.00 0.00 31 1017.8
20260506184958 12 290 4.8 14.5 0.00 0.00 0.00 30 1017.8
20260506184458 12 293 3.2 14.5 0.00 0.00 0.00 31 1018.0
20260506183457 12 282 4.8 16.1 0.00 0.00 0.00 31 1018.0
20260506182957 12 281 8.0 20.9 0.00 0.00 0.00 33 1018.1
20260506181958 12 301 1.6 11.3 0.00 0.00 0.00 34 1018.2
20260506180958 12 287 4.8 14.5 0.00 0.00 0.00 33 1018.3
20260506175957 11 285 4.8 14.5 0.00 0.00 0.00 34 1018.3
20260506174958 12 282 6.4 17.7 0.00 0.00 0.00 32 1018.4
20260506173958 11 288 3.2 9.7 0.00 0.00 0.00 34 1018.5
20260506172958 11 290 3.2 11.3 0.00 0.00 0.00 34 1018.6
20260506172457 11 292 3.2 14.5 0.00 0.00 0.00 35 1018.5
20260506171458 11 287 6.4 19.3 0.00 0.00 0.00 35 1018.6
20260506170958 11 289 4.8 19.3 0.00 0.00 0.00 33 1018.6
20260506170458 12 300 3.2 9.7 0.00 0.00 0.00 34 1018.7
20260506164957 11 306 4.8 12.9 0.00 0.00 0.00 34 1018.9
20260506163957 11 291 4.8 16.1 0.00 0.00 0.00 35 1018.9
20260506163458 10 296 4.8 16.1 0.00 0.00 0.00 35 1018.9
20260506162958 10 300 4.8 17.7 0.00 0.00 0.00 36 1019.0
20260506162458 10 292 4.8 17.7 0.00 0.00 0.00 36 1019.0
20260506161957 10 290 3.2 14.5 0.00 0.00 0.00 36 1018.9
20260506161457 10 290 4.8 17.7 0.00 0.00 0.00 37 1019.0
20260506160957 10 289 6.4 17.7 0.00 0.00 0.00 36 1019.0
20260506160457 10 291 3.2 11.3 0.00 0.00 0.00 36 1018.9
20260506155958 10 297 3.2 12.9 0.00 0.00 0.00 36 1018.9
20260506155457 10 298 4.8 12.9 0.00 0.00 0.00 37 1018.8
20260506153958 10 304 4.8 14.5 0.00 0.00 0.00 37 1018.8
20260506153457 10 301 3.2 11.3 0.00 0.00 0.00 37 1019.0
20260506152957 10 298 3.2 11.3 0.00 0.00 0.00 39 1019.0
20260506151958 10 308 1.6 8.0 0.00 0.00 0.00 40 1018.8
20260506151458 10 305 3.2 8.0 0.00 0.00 0.00 40 1018.9
20260506150457 9 295 3.2 9.7 0.00 0.00 0.00 42 1018.9
20260506145957 9 288 3.2 9.7 0.00 0.00 0.00 45 1018.9
20260506145458 8 283 3.2 9.7 0.00 0.00 0.00 46 1018.9
20260506144958 8 285 3.2 9.7 0.00 0.00 0.00 46 1018.9
20260506144457 8 285 3.2 9.7 0.00 0.00 0.00 46 1019.1
20260506143457 7 282 3.2 8.0 0.00 0.00 0.00 52 1019.1
20260506142957 7 285 3.2 6.4 0.00 0.00 0.00 53 1019.1
20260506142457 7 288 1.6 6.4 0.00 0.00 0.00 53 1019.1
20260506141458 6 280 1.6 8.0 0.00 0.00 0.00 58 1019.1
20260506140957 6 277 1.6 4.8 0.00 0.00 0.00 60 1019.1
20260506140457 6 279 0.0 4.8 0.00 0.00 0.00 63 1019.2
20260506135957 5 281 1.6 4.8 0.00 0.00 0.00 64 1019.1
20260506135457 5 283 1.6 4.8 0.00 0.00 0.00 65 1019.2
20260506134458 4 280 1.6 6.4 0.00 0.00 0.00 65 1019.2
20260506133957 3 283 1.6 4.8 0.00 0.00 0.00 68 1019.0
20260506133457 3 284 0.0 4.8 0.00 0.00 0.00 68 1018.9
20260506132957 3 284 0.0 3.2 0.00 0.00 0.00 70 1019.0
20260506132457 2 284 1.6 3.2 0.00 0.00 0.00 70 1019.1
20260506131957 2 285 1.6 4.8 0.00 0.00 0.00 71 1019.0
20260506131457 2 282 3.2 4.8 0.00 0.00 0.00 72 1019.0
20260506130958 2 281 1.6 4.8 0.00 0.00 0.00 72 1019.0
20260506125957 1 285 3.2 4.8 0.00 0.00 0.00 73 1018.9
20260506125457 1 284 1.6 4.8 0.00 0.00 0.00 74 1019.0
20260506124957 1 284 0.0 3.2 0.00 0.00 0.00 76 1019.0
20260506124458 1 283 0.0 1.6 0.00 0.00 0.00 77 1018.9
20260506123457 0 280 3.2 4.8 0.00 0.00 0.00 77 1018.7
20260506122957 0 279 1.6 4.8 0.00 0.00 0.00 78 1018.5
20260506122457 0 279 1.6 4.8 0.00 0.00 0.00 78 1018.5
20260506121457 0 283 0.0 4.8 0.00 0.00 0.00 78 1018.4
20260506120458 0 281 0.0 1.6 0.00 0.00 0.00 80 1018.3
20260506115958 0 279 0.0 1.6 0.00 0.00 0.00 80 1018.2
20260506115457 0 280 0.0 1.6 0.00 0.00 0.00 81 1018.1
20260506114957 0 283 0.0 1.6 0.00 0.00 0.00 81 1018.1
20260506114458 0 0 0.0 0.0 0.00 0.00 0.00 81 1018.0
20260506113457 0 0 0.0 0.0 0.00 0.00 0.00 81 1017.8
20260506112957 0 0 0.0 0.0 0.00 0.00 0.00 81 1017.8
20260506111957 0 0 0.0 0.0 0.00 0.00 0.00 83 1017.7
20260506111457 0 0 0.0 0.0 0.00 0.00 0.00 83 1017.6
20260506110958 0 0 0.0 0.0 0.00 0.00 0.00 83 1017.6
20260506110457 0 0 0.0 0.0 0.00 0.00 0.00 83 1017.5
20260506105957 0 0 0.0 0.0 0.00 0.00 0.00 84 1017.5
20260506105457 0 0 0.0 0.0 0.00 0.00 0.00 84 1017.3
20260506104957 0 0 0.0 0.0 0.00 0.00 0.00 83 1017.4
20260506102958 0 0 0.0 0.0 0.00 0.00 0.00 82 1017.3
20260506102457 0 0 0.0 0.0 0.00 0.00 0.00 83 1017.2
20260506101957 0 0 0.0 0.0 0.00 0.00 0.00 82 1017.2
20260506101457 0 0 0.0 0.0 0.00 0.00 0.00 81 1017.2
20260506100957 0 0 0.0 0.0 0.00 0.00 0.00 81 1017.3
20260506100457 0 0 0.0 0.0 0.00 0.00 0.00 81 1017.1
20260506095958 0 0 0.0 0.0 0.00 0.00 0.00 80 1017.0
20260506095457 0 0 0.0 0.0 0.00 0.00 0.00 80 1017.2
20260506094957 0 0 0.0 0.0 0.00 0.00 0.00 79 1017.1